QPF
0.00 0.00 0.00 0.00 0.00 0.00 0.00 0.00 0.00 0.00 0.00 0.00 0.00 0.01 0.01 0.01 0.01 0.01 0.01 0.01 0.01 0.01 0.01 0.01 0.01 0.01 0.01 0.01 0.01 0.01 0.00 0.00 0.00 0.00 0.00 0.01 0.01 0.00 0.00 0.00 0.00 0.00 0.00 0.00 0.01 0.03 0.04 0.04 0.03 0.03 0.02 0.02 0.02 0.02 0.02 0.03 0.03 0.03 0.03 0.03 0.03 0.02 0.02 0.02 0.02 0.02 0.02 0.02 0.02
0.00 0.00 0.00 0.00 0.00 0.00 0.00 0.00 0.00 0.00 0.00 0.00 0.01 0.01 0.01 0.01 0.01 0.01 0.01 0.01 0.01 0.01 0.01 0.01 0.01 0.01 0.01 0.01 0.01 0.01 0.01 0.01 0.01 0.01 0.01 0.01 0.01 0.01 0.00 0.00 0.00 0.01 0.01 0.01 0.03 0.04 0.05 0.05 0.04 0.04 0.05 0.07 0.07 0.06 0.05 0.03 0.03 0.03 0.03 0.03 0.02 0.02 0.02 0.02 0.02 0.02 0.02 0.02 0.02
0.00 0.00 0.00 0.00 0.00 0.00 0.00 0.00 0.00 0.00 0.00 0.00 0.00 0.01 0.01 0.01 0.01 0.01 0.01 0.01 0.01 0.01 0.01 0.01 0.01 0.01 0.01 0.01 0.01 0.01 0.01 0.01 0.01 0.01 0.01 0.01 0.01 0.01 0.01 0.00 0.00 0.01 0.01 0.01 0.02 0.03 0.04 0.04 0.05 0.07 0.08 0.09 0.08 0.06 0.04 0.02 0.02 0.02 0.02 0.02 0.02 0.01 0.01 0.01 0.01 0.01 0.01 0.01 0.02
0.00 0.00 0.00 0.00 0.00 0.00 0.00 0.00 0.00 0.00 0.00 0.00 0.00 0.00 0.01 0.01 0.01 0.01 0.01 0.01 0.01 0.01 0.01 0.01 0.01 0.01 0.01 0.01 0.01 0.01 0.01 0.01 0.01 0.01 0.01 0.01 0.01 0.01 0.00 0.00 0.01 0.01 0.01 0.02 0.02 0.03 0.04 0.05 0.05 0.05 0.05 0.05 0.05 0.04 0.04 0.03 0.02 0.02 0.02 0.01 0.01 0.01 0.01 0.01 0.01 0.01 0.01 0.01 0.01
0.00 0.00 0.00 0.00 0.00 0.00 0.00 0.00 0.00 0.00 0.00 0.00 0.00 0.00 0.00 0.00 0.01 0.01 0.01 0.01 0.01 0.01 0.01 0.01 0.01 0.01 0.01 0.01 0.01 0.01 0.01 0.01 0.00 0.00 0.00 0.00 0.00 0.01 0.01 0.01 0.01 0.01 0.01 0.02 0.04 0.05 0.06 0.09 0.08 0.06 0.05 0.04 0.04 0.03 0.03 0.04 0.03 0.02 0.02 0.02 0.02 0.02 0.02 0.02 0.01 0.01 0.01 0.01 0.01
0.00 0.00 0.00 0.00 0.00 0.00 0.00 0.00 0.00 0.00 0.00 0.00 0.00 0.00 0.00 0.00 0.00 0.00 0.00 0.00 0.01 0.01 0.01 0.01 0.01 0.01 0.00 0.00 0.01 0.01 0.01 0.01 0.01 0.01 0.01 0.01 0.01 0.01 0.01 0.01 0.01 0.01 0.02 0.02 0.06 0.07 0.07 0.07 0.06 0.06 0.05 0.04 0.03 0.03 0.03 0.03 0.03 0.03 0.03 0.04 0.03 0.02 0.02 0.01 0.01 0.01 0.01 0.01 0.01
0.00 0.00 0.00 0.00 0.00 0.00 0.00 0.00 0.00 0.00 0.00 0.00 0.00 0.00 0.00 0.00 0.00 0.00 0.00 0.00 0.00 0.00 0.00 0.00 0.00 0.00 0.01 0.01 0.01 0.01 0.01 0.01 0.01 0.01 0.01 0.01 0.01 0.01 0.02 0.03 0.03 0.04 0.05 0.05 0.06 0.05 0.05 0.06 0.06 0.06 0.05 0.04 0.04 0.04 0.04 0.04 0.05 0.05 0.04 0.03 0.03 0.02 0.02 0.01 0.01 0.01 0.01 0.01 0.01
0.00 0.00 0.00 0.00 0.00 0.00 0.00 0.00 0.00 0.00 0.00 0.00 0.00 0.00 0.00 0.00 0.00 0.00 0.00 0.00 0.01 0.00 0.00 0.00 0.00 0.00 0.00 0.01 0.00 0.00 0.01 0.01 0.01 0.01 0.02 0.01 0.02 0.02 0.03 0.03 0.03 0.04 0.04 0.05 0.04 0.05 0.07 0.07 0.06 0.06 0.06 0.06 0.05 0.05 0.05 0.05 0.05 0.03 0.02 0.01 0.01 0.01 0.01 0.01 0.01 0.01 0.01 0.01 0.01
0.00 0.00 0.00 0.00 0.00 0.00 0.00 0.00 0.00 0.00 0.00 0.00 0.00 0.00 0.00 0.00 0.00 0.00 0.00 0.00 0.00 0.00 0.00 0.00 0.00 0.00 0.00 0.00 0.00 0.00 0.00 0.01 0.02 0.03 0.03 0.03 0.03 0.04 0.05 0.05 0.05 0.05 0.05 0.05 0.03 0.02 0.03 0.02 0.03 0.03 0.03 0.03 0.04 0.04 0.03 0.03 0.02 0.02 0.01 0.01 0.01 0.01 0.01 0.01 0.01 0.01 0.01 0.01 0.01
0.00 0.00 0.00 0.00 0.00 0.00 0.00 0.00 0.00 0.00 0.00 0.00 0.00 0.00 0.00 0.00 0.00 0.00 0.00 0.00 0.00 0.00 0.00 0.00 0.00 0.00 0.00 0.00 0.00 0.00 0.00 0.00 0.00 0.00 0.00 0.00 0.00 0.00 0.00 0.01 0.01 0.01 0.02 0.02 0.01 0.00 0.00 0.00 0.00 0.00 0.01 0.01 0.01 0.01 0.01 0.01 0.01 0.01 0.01 0.01 0.01 0.01 0.01 0.01 0.01 0.01 0.01 0.01 0.01
0.00 0.00 0.00 0.00 0.00 0.00 0.00 0.00 0.00 0.00 0.00 0.00 0.00 0.00 0.00 0.00 0.00 0.00 0.00 0.00 0.00 0.00 0.00 0.00 0.00 0.00 0.00 0.00 0.00 0.00 0.00 0.00 0.00 0.00 0.00 0.00 0.00 0.00 0.00 0.00 0.00 0.00 0.00 0.00 0.00 0.00 0.00 0.00 0.00 0.00 0.00 0.00 0.00 0.01 0.01 0.01 0.00 0.00 0.00 0.00 0.00 0.00 0.01 0.01 0.01 0.01 0.01 0.01 0.01
0.00 0.00 0.00 0.00 0.00 0.00 0.00 0.00 0.00 0.00 0.00 0.00 0.00 0.00 0.00 0.00 0.00 0.00 0.00 0.00 0.00 0.00 0.00 0.00 0.00 0.00 0.00 0.00 0.00 0.00 0.00 0.00 0.00 0.00 0.00 0.00 0.00 0.00 0.00 0.00 0.00 0.00 0.00 0.00 0.00 0.00 0.00 0.00 0.00 0.00 0.00 0.00 0.00 0.00 0.00 0.00 0.00 0.00 0.00 0.01 0.00 0.00 0.01 0.01 0.01 0.01 0.01 0.01 0.01
0.00 0.00 0.00 0.00 0.00 0.00 0.00 0.00 0.00 0.00 0.00 0.00 0.00 0.00 0.00 0.00 0.00 0.00 0.00 0.00 0.00 0.00 0.00 0.00 0.00 0.00 0.00 0.00 0.00 0.00 0.00 0.00 0.00 0.00 0.00 0.00 0.00 0.00 0.00 0.00 0.00 0.00 0.00 0.00 0.00 0.00 0.00 0.00 0.00 0.01 0.01 0.01 0.00 0.00 0.01 0.01 0.01 0.01 0.01 0.01 0.01 0.01 0.01 0.01 0.01 0.00 0.00 0.00 0.00
0.00 0.00 0.00 0.00 0.00 0.00 0.00 0.00 0.00 0.00 0.00 0.00 0.00 0.00 0.00 0.00 0.00 0.00 0.00 0.00 0.00 0.00 0.00 0.00 0.00 0.00 0.00 0.00 0.00 0.00 0.00 0.00 0.00 0.00 0.00 0.00 0.00 0.00 0.00 0.00 0.00 0.00 0.01 0.01 0.01 0.01 0.01 0.01 0.01 0.01 0.01 0.01 0.01 0.01 0.01 0.01 0.01 0.01 0.01 0.01 0.01 0.01 0.01 0.01 0.00 0.00 0.00 0.00 0.00
0.00 0.00 0.00 0.00 0.00 0.00 0.00 0.00 0.00 0.00 0.00 0.00 0.00 0.00 0.00 0.00 0.00 0.00 0.00 0.00 0.00 0.00 0.00 0.00 0.00 0.00 0.00 0.00 0.00 0.00 0.00 0.00 0.00 0.00 0.00 0.00 0.00 0.00 0.00 0.00 0.00 0.01 0.01 0.01 0.01 0.01 0.01 0.01 0.01 0.01 0.01 0.01 0.01 0.01 0.01 0.01 0.01 0.01 0.01 0.00 0.00 0.00 0.00 0.00 0.00 0.00 0.00 0.00 0.00
0.00 0.00 0.00 0.00 0.00 0.00 0.00 0.00 0.00 0.00 0.00 0.00 0.00 0.00 0.00 0.00 0.00 0.00 0.00 0.00 0.00 0.00 0.00 0.00 0.00 0.00 0.00 0.00 0.00 0.00 0.00 0.00 0.00 0.00 0.00 0.00 0.00 0.00 0.00 0.00 0.00 0.00 0.01 0.00 0.01 0.01 0.01 0.01 0.01 0.01 0.01 0.01 0.01 0.01 0.01 0.01 0.01 0.01 0.00 0.00 0.00 0.00 0.00 0.00 0.00 0.00 0.00 0.00 0.00
0.00 0.00 0.00 0.00 0.00 0.00 0.00 0.00 0.00 0.00 0.00 0.00 0.00 0.00 0.00 0.00 0.00 0.00 0.00 0.00 0.00 0.00 0.00 0.00 0.00 0.00 0.00 0.00 0.00 0.00 0.00 0.00 0.00 0.00 0.00 0.00 0.00 0.00 0.00 0.00 0.00 0.00 0.00 0.01 0.01 0.01 0.01 0.01 0.01 0.01 0.01 0.01 0.01 0.01 0.01 0.01 0.01 0.00 0.00 0.00 0.00 0.00 0.00 0.00 0.00 0.00 0.00 0.00 0.00
0.00 0.00 0.00 0.00 0.00 0.00 0.00 0.00 0.00 0.00 0.00 0.00 0.00 0.00 0.00 0.00 0.00 0.00 0.00 0.00 0.00 0.00 0.00 0.00 0.00 0.00 0.00 0.00 0.00 0.00 0.00 0.00 0.00 0.00 0.00 0.00 0.00 0.00 0.01 0.01 0.00 0.00 0.00 0.00 0.01 0.01 0.01 0.01 0.01 0.01 0.01 0.01 0.01 0.01 0.01 0.01 0.01 0.00 0.01 0.00 0.00 0.00 0.00 0.00 0.00 0.00 0.00 0.00 0.00
0.00 0.00 0.00 0.00 0.00 0.00 0.00 0.00 0.00 0.00 0.00 0.00 0.00 0.00 0.00 0.00 0.00 0.00 0.00 0.00 0.00 0.00 0.00 0.00 0.00 0.00 0.00 0.00 0.00 0.00 0.00 0.00 0.00 0.00 0.00 0.00 0.00 0.00 0.00 0.00 0.00 0.00 0.00 0.00 0.00 0.00 0.00 0.00 0.00 0.00 0.01 0.01 0.01 0.01 0.00 0.00 0.00 0.01 0.01 0.01 0.00 0.00 0.00 0.00 0.00 0.00 0.00 0.00 0.00
0.00 0.00 0.00 0.00 0.00 0.00 0.00 0.00 0.00 0.00 0.00 0.00 0.00 0.00 0.00 0.00 0.00 0.00 0.00 0.00 0.00 0.00 0.00 0.00 0.00 0.00 0.00 0.00 0.00 0.00 0.00 0.00 0.00 0.00 0.00 0.00 0.00 0.00 0.00 0.00 0.00 0.00 0.00 0.00 0.00 0.00 0.00 0.00 0.00 0.00 0.00 0.00 0.01 0.01 0.01 0.00 0.01 0.01 0.01 0.01 0.00 0.00 0.00 0.00 0.00 0.00 0.00 0.00 0.00
0.00 0.00 0.00 0.00 0.00 0.00 0.01 0.01 0.00 0.00 0.00 0.00 0.00 0.00 0.00 0.00 0.00 0.00 0.00 0.00 0.00 0.00 0.00 0.00 0.00 0.00 0.00 0.00 0.00 0.00 0.00 0.00 0.00 0.00 0.00 0.00 0.00 0.00 0.00 0.00 0.00 0.00 0.00 0.00 0.00 0.00 0.00 0.00 0.00 0.00 0.01 0.01 0.01 0.01 0.01 0.01 0.01 0.01 0.01 0.01 0.00 0.00 0.00 0.00 0.00 0.00 0.00 0.00 0.00
0.00 0.00 0.00 0.00 0.00 0.00 0.00 0.00 0.00 0.00 0.00 0.00 0.00 0.00 0.00 0.00 0.00 0.00 0.00 0.00 0.00 0.00 0.00 0.00 0.00 0.00 0.00 0.00 0.00 0.00 0.00 0.00 0.00 0.00 0.00 0.00 0.00 0.00 0.00 0.00 0.00 0.00 0.00 0.00 0.00 0.00 0.00 0.00 0.00 0.01 0.01 0.01 0.01 0.01 0.01 0.01 0.01 0.01 0.00 0.00 0.00 0.00 0.00 0.00 0.00 0.00 0.00 0.00 0.00
0.00 0.00 0.00 0.00 0.00 0.00 0.00 0.00 0.00 0.00 0.00 0.00 0.00 0.00 0.00 0.00 0.00 0.00 0.00 0.00 0.00 0.00 0.00 0.00 0.00 0.00 0.00 0.00 0.00 0.00 0.00 0.00 0.00 0.00 0.00 0.00 0.00 0.00 0.00 0.00 0.00 0.00 0.00 0.00 0.00 0.00 0.00 0.00 0.00 0.00 0.00 0.00 0.01 0.01 0.00 0.01 0.01 0.00 0.00 0.00 0.00 0.00 0.00 0.00 0.00 0.00 0.00 0.00 0.00
0.00 0.00 0.00 0.00 0.00 0.00 0.00 0.00 0.00 0.00 0.00 0.00 0.00 0.00 0.00 0.00 0.00 0.00 0.00 0.00 0.00 0.00 0.00 0.00 0.00 0.00 0.00 0.00 0.00 0.00 0.00 0.00 0.00 0.00 0.00 0.00 0.00 0.00 0.00 0.00 0.00 0.00 0.00 0.00 0.00 0.00 0.00 0.00 0.00 0.00 0.00 0.01 0.01 0.01 0.01 0.00 0.00 0.00 0.00 0.00 0.00 0.00 0.00 0.00 0.00 0.00 0.00 0.00 0.00
0.00 0.00 0.00 0.00 0.00 0.00 0.00 0.01 0.00 0.00 0.00 0.00 0.00 0.00 0.00 0.00 0.00 0.00 0.00 0.00 0.00 0.00 0.00 0.01 0.01 0.00 0.00 0.00 0.00 0.00 0.00 0.00 0.00 0.00 0.00 0.00 0.00 0.00 0.00 0.00 0.00 0.00 0.00 0.00 0.00 0.00 0.00 0.00 0.00 0.00 0.00 0.00 0.00 0.00 0.00 0.00 0.00 0.00 0.00 0.00 0.00 0.00 0.00 0.00 0.00 0.00 0.00 0.00 0.00
0.00 0.00 0.00 0.00 0.00 0.00 0.01 0.01 0.01 0.01 0.00 0.00 0.00 0.00 0.00 0.01 0.01 0.01 0.01 0.01 0.01 0.01 0.01 0.01 0.01 0.01 0.01 0.01 0.01 0.01 0.01 0.01 0.01 0.01 0.01 0.01 0.01 0.01 0.01 0.00 0.00 0.00 0.00 0.00 0.00 0.00 0.00 0.00 0.00 0.00 0.00 0.00 0.00 0.00 0.00 0.00 0.00 0.00 0.00 0.00 0.00 0.00 0.00 0.00 0.00 0.00 0.00 0.00 0.00
0.00 0.00 0.00 0.00 0.00 0.01 0.01 0.01 0.01 0.01 0.01 0.00 0.01 0.01 0.01 0.01 0.01 0.01 0.01 0.01 0.01 0.01 0.01 0.01 0.01 0.01 0.01 0.01 0.01 0.01 0.01 0.01 0.01 0.01 0.01 0.01 0.01 0.01 0.01 0.01 0.01 0.00 0.00 0.00 0.00 0.00 0.00 0.00 0.00 0.00 0.00 0.00 0.00 0.00 0.00 0.00 0.00 0.00 0.00 0.00 0.00 0.00 0.00 0.00 0.00 0.00 0.00 0.00 0.00
0.00 0.00 0.00 0.00 0.01 0.01 0.01 0.01 0.01 0.01 0.01 0.01 0.01 0.01 0.01 0.01 0.01 0.01 0.01 0.01 0.01 0.01 0.01 0.01 0.01 0.01 0.01 0.01 0.01 0.01 0.01 0.01 0.01 0.00 0.00 0.00 0.00 0.01 0.01 0.01 0.01 0.01 0.00 0.00 0.00 0.00 0.00 0.00 0.00 0.00 0.00 0.00 0.00 0.00 0.00 0.00 0.00 0.00 0.00 0.00 0.00 0.00 0.00 0.00 0.00 0.00 0.00 0.00 0.00
0.00 0.00 0.00 0.00 0.00 0.01 0.01 0.01 0.01 0.01 0.01 0.00 0.01 0.01 0.01 0.01 0.01 0.01 0.01 0.01 0.01 0.01 0.01 0.01 0.01 0.00 0.00 0.00 0.01 0.01 0.01 0.00 0.00 0.00 0.00 0.00 0.00 0.01 0.01 0.01 0.01 0.01 0.01 0.00 0.00 0.00 0.00 0.00 0.00 0.00 0.00 0.00 0.00 0.00 0.00 0.00 0.00 0.00 0.00 0.00 0.00 0.00 0.00 0.00 0.00 0.00 0.00 0.00 0.00
0.00 0.00 0.00 0.00 0.00 0.01 0.01 0.01 0.01 0.01 0.00 0.00 0.00 0.01 0.01 0.01 0.01 0.01 0.01 0.01 0.01 0.01 0.01 0.00 0.00 0.00 0.00 0.00 0.00 0.01 0.01 0.01 0.00 0.00 0.00 0.00 0.01 0.01 0.01 0.01 0.01 0.01 0.01 0.00 0.00 0.00 0.00 0.00 0.00 0.00 0.00 0.00 0.00 0.00 0.00 0.00 0.00 0.00 0.00 0.00 0.00 0.00 0.00 0.00 0.00 0.00 0.00 0.00 0.00
0.00 0.00 0.00 0.00 0.00 0.00 0.00 0.01 0.01 0.00 0.00 0.00 0.01 0.01 0.01 0.01 0.01 0.01 0.01 0.01 0.01 0.01 0.00 0.00 0.01 0.00 0.00 0.00 0.00 0.00 0.00 0.00 0.00 0.00 0.00 0.00 0.00 0.00 0.01 0.01 0.01 0.01 0.01 0.00 0.00 0.00 0.00 0.00 0.00 0.00 0.00 0.00 0.00 0.00 0.00 0.00 0.00 0.00 0.00 0.00 0.00 0.00 0.00 0.00 0.00 0.00 0.00 0.00 0.00
0.00 0.00 0.00 0.01 0.01 0.01 0.01 0.01 0.01 0.00 0.00 0.00 0.01 0.01 0.01 0.01 0.01 0.01 0.01 0.00 0.00 0.00 0.00 0.00 0.00 0.00 0.00 0.00 0.01 0.01 0.00 0.00 0.00 0.00 0.00 0.00 0.00 0.00 0.00 0.00 0.01 0.01 0.00 0.00 0.00 0.00 0.00 0.00 0.00 0.00 0.00 0.00 0.00 0.00 0.00 0.00 0.00 0.00 0.00 0.00 0.00 0.00 0.00 0.00 0.00 0.00 0.00 0.00 0.00
0.00 0.00 0.01 0.01 0.01 0.01 0.01 0.01 0.01 0.01 0.00 0.00 0.00 0.01 0.01 0.01 0.01 0.01 0.00 0.00 0.00 0.00 0.00 0.00 0.00 0.00 0.01 0.01 0.01 0.01 0.01 0.01 0.00 0.00 0.00 0.00 0.00 0.00 0.00 0.00 0.00 0.00 0.00 0.00 0.00 0.00 0.00 0.00 0.00 0.00 0.00 0.00 0.00 0.00 0.00 0.00 0.00 0.00 0.00 0.00 0.00 0.00 0.00 0.00 0.00 0.00 0.00 0.00 0.00
0.00 0.00 0.01 0.01 0.01 0.01 0.01 0.01 0.01 0.01 0.01 0.00 0.00 0.00 0.01 0.01 0.01 0.01 0.00 0.00 0.00 0.00 0.00 0.00 0.01 0.01 0.01 0.01 0.01 0.01 0.01 0.01 0.00 0.00 0.00 0.00 0.00 0.00 0.00 0.00 0.00 0.00 0.00 0.00 0.00 0.00 0.00 0.00 0.00 0.00 0.00 0.00 0.00 0.00 0.00 0.00 0.00 0.00 0.00 0.00 0.00 0.00 0.00 0.00 0.00 0.00 0.00 0.00 0.00
0.00 0.00 0.01 0.01 0.01 0.01 0.01 0.01 0.01 0.01 0.01 0.00 0.00 0.00 0.00 0.00 0.00 0.00 0.00 0.00 0.00 0.00 0.00 0.00 0.01 0.01 0.01 0.01 0.01 0.01 0.00 0.00 0.00 0.00 0.00 0.00 0.00 0.00 0.00 0.00 0.00 0.00 0.00 0.00 0.00 0.00 0.00 0.00 0.00 0.00 0.00 0.00 0.00 0.00 0.00 0.00 0.00 0.00 0.00 0.00 0.00 0.00 0.00 0.00 0.00 0.00 0.00 0.00 0.00
0.00 0.00 0.01 0.01 0.01 0.01 0.01 0.01 0.01 0.01 0.01 0.00 0.00 0.00 0.00 0.00 0.00 0.00 0.00 0.00 0.00 0.00 0.00 0.01 0.01 0.01 0.01 0.00 0.00 0.00 0.00 0.00 0.00 0.00 0.00 0.00 0.00 0.00 0.00 0.00 0.00 0.00 0.00 0.00 0.00 0.00 0.00 0.00 0.00 0.00 0.00 0.00 0.00 0.00 0.00 0.00 0.00 0.00 0.00 0.00 0.00 0.00 0.00 0.00 0.00 0.00 0.00 0.00 0.00
0.01 0.01 0.01 0.01 0.01 0.01 0.01 0.01 0.01 0.01 0.01 0.00 0.00 0.00 0.00 0.00 0.00 0.00 0.00 0.00 0.00 0.00 0.00 0.01 0.01 0.01 0.00 0.00 0.00 0.00 0.00 0.00 0.00 0.00 0.00 0.00 0.00 0.00 0.00 0.00 0.00 0.00 0.00 0.00 0.00 0.00 0.00 0.00 0.00 0.00 0.00 0.00 0.00 0.00 0.00 0.00 0.00 0.00 0.00 0.00 0.00 0.00 0.00 0.00 0.00 0.00 0.00 0.00 0.00
0.01 0.01 0.01 0.01 0.01 0.01 0.01 0.01 0.01 0.01 0.01 0.00 0.00 0.00 0.00 0.00 0.00 0.00 0.00 0.00 0.00 0.00 0.00 0.01 0.01 0.00 0.00 0.00 0.00 0.00 0.00 0.00 0.00 0.00 0.00 0.00 0.00 0.00 0.00 0.00 0.00 0.00 0.00 0.00 0.00 0.00 0.00 0.00 0.00 0.00 0.00 0.00 0.00 0.00 0.00 0.00 0.00 0.00 0.00 0.00 0.00 0.00 0.00 0.00 0.00 0.00 0.00 0.00 0.00
0.01 0.01 0.01 0.01 0.01 0.01 0.01 0.01 0.01 0.00 0.00 0.00 0.00 0.00 0.00 0.00 0.00 0.00 0.00 0.00 0.00 0.00 0.00 0.01 0.01 0.00 0.00 0.00 0.00 0.00 0.00 0.00 0.00 0.00 0.00 0.00 0.00 0.00 0.00 0.00 0.00 0.00 0.00 0.00 0.00 0.00 0.00 0.00 0.00 0.00 0.00 0.00 0.00 0.00 0.00 0.00 0.00 0.00 0.00 0.00 0.00 0.00 0.00 0.00 0.00 0.00 0.00 0.00 0.00
0.00 0.01 0.01 0.01 0.01 0.01 0.01 0.01 0.01 0.00 0.00 0.00 0.00 0.00 0.00 0.00 0.00 0.00 0.00 0.00 0.00 0.00 0.00 0.01 0.01 0.00 0.00 0.00 0.00 0.00 0.00 0.00 0.00 0.00 0.00 0.00 0.00 0.00 0.00 0.00 0.00 0.00 0.00 0.00 0.00 0.00 0.00 0.00 0.00 0.00 0.00 0.00 0.00 0.00 0.00 0.00 0.00 0.00 0.00 0.00 0.00 0.00 0.00 0.00 0.00 0.00 0.00 0.00 0.00
0.00 0.00 0.01 0.01 0.01 0.01 0.01 0.01 0.01 0.01 0.00 0.00 0.00 0.00 0.00 0.00 0.00 0.00 0.00 0.00 0.00 0.00 0.00 0.00 0.00 0.00 0.00 0.00 0.00 0.00 0.00 0.00 0.00 0.00 0.00 0.00 0.00 0.00 0.00 0.00 0.00 0.00 0.00 0.00 0.00 0.00 0.00 0.00 0.00 0.00 0.00 0.00 0.00 0.00 0.00 0.00 0.00 0.00 0.00 0.00 0.00 0.00 0.00 0.00 0.00 0.00 0.00 0.00 0.00
MSLP
1019.25 1019.17 1019.09 1018.97 1018.93 1018.81 1018.77 1018.69 1018.61 1018.53 1018.49 1018.41 1018.37 1018.29 1018.21 1018.09 1018.09 1018.01 1017.93 1017.89 1017.85 1017.85 1017.85 1017.81 1017.77 1017.65 1017.57 1017.41 1017.25 1017.17 1017.09 1017.01 1016.97 1017.01 1017.05 1017.09 1017.13 1017.17 1017.17 1017.21 1017.25 1017.25 1017.25 1017.29 1017.37 1017.41 1017.53 1017.65 1017.81 1017.85 1017.81 1017.77 1017.93 1018.21 1018.37 1018.49 1018.61 1018.77 1018.93 1019.09 1019.25 1019.37 1019.45 1019.57 1019.73 1019.81 1019.89 1019.97 1020.09
1019.37 1019.25 1019.17 1019.09 1018.97 1018.93 1018.81 1018.77 1018.73 1018.65 1018.57 1018.49 1018.45 1018.37 1018.29 1018.17 1018.13 1018.09 1018.09 1018.01 1017.93 1017.93 1017.93 1017.93 1017.85 1017.81 1017.69 1017.53 1017.41 1017.33 1017.25 1017.21 1017.21 1017.21 1017.25 1017.25 1017.29 1017.29 1017.29 1017.33 1017.33 1017.37 1017.37 1017.37 1017.37 1017.41 1017.53 1017.73 1017.89 1018.01 1018.09 1018.09 1018.21 1018.41 1018.65 1018.73 1018.73 1018.81 1019.01 1019.21 1019.37 1019.49 1019.61 1019.77 1019.89 1019.93 1020.05 1020.09 1020.17
1019.45 1019.37 1019.25 1019.21 1019.17 1019.09 1018.97 1018.93 1018.89 1018.85 1018.77 1018.65 1018.57 1018.49 1018.37 1018.29 1018.21 1018.21 1018.17 1018.13 1018.09 1018.05 1018.01 1017.97 1017.93 1017.89 1017.81 1017.65 1017.57 1017.49 1017.41 1017.37 1017.37 1017.37 1017.37 1017.41 1017.45 1017.45 1017.45 1017.49 1017.49 1017.49 1017.49 1017.53 1017.53 1017.57 1017.73 1017.89 1018.01 1018.13 1018.25 1018.37 1018.53 1018.73 1018.89 1018.97 1018.93 1019.01 1019.21 1019.37 1019.45 1019.57 1019.73 1019.89 1020.01 1020.09 1020.13 1020.21 1020.33
1019.53 1019.45 1019.37 1019.33 1019.33 1019.25 1019.21 1019.13 1019.09 1019.01 1018.93 1018.81 1018.69 1018.61 1018.53 1018.41 1018.37 1018.33 1018.29 1018.21 1018.21 1018.13 1018.09 1018.09 1018.09 1018.01 1017.93 1017.81 1017.73 1017.65 1017.65 1017.57 1017.53 1017.57 1017.57 1017.61 1017.65 1017.65 1017.65 1017.65 1017.65 1017.65 1017.65 1017.65 1017.69 1017.77 1017.81 1017.97 1018.17 1018.37 1018.53 1018.69 1018.85 1018.93 1019.05 1019.13 1019.21 1019.29 1019.45 1019.57 1019.65 1019.77 1019.93 1020.05 1020.13 1020.21 1020.29 1020.41 1020.57
1019.65 1019.61 1019.53 1019.49 1019.45 1019.41 1019.37 1019.33 1019.25 1019.17 1019.09 1018.93 1018.85 1018.77 1018.65 1018.57 1018.53 1018.49 1018.41 1018.37 1018.33 1018.33 1018.25 1018.21 1018.13 1018.09 1018.09 1017.97 1017.89 1017.81 1017.81 1017.77 1017.77 1017.77 1017.81 1017.81 1017.81 1017.85 1017.85 1017.81 1017.81 1017.81 1017.81 1017.81 1017.93 1017.93 1017.97 1018.09 1018.29 1018.53 1018.73 1018.89 1018.97 1019.09 1019.21 1019.25 1019.37 1019.53 1019.69 1019.81 1019.93 1020.01 1020.09 1020.21 1020.29 1020.37 1020.53 1020.65 1020.81
1019.81 1019.77 1019.73 1019.65 1019.57 1019.53 1019.45 1019.41 1019.33 1019.25 1019.21 1019.13 1019.09 1019.01 1018.93 1018.85 1018.81 1018.69 1018.61 1018.57 1018.53 1018.49 1018.41 1018.33 1018.25 1018.21 1018.13 1018.09 1018.05 1018.01 1018.01 1018.01 1018.01 1018.01 1018.01 1018.05 1018.09 1018.09 1018.09 1018.09 1018.09 1018.09 1018.09 1018.09 1018.17 1018.21 1018.17 1018.17 1018.37 1018.65 1018.85 1019.01 1019.17 1019.33 1019.41 1019.49 1019.57 1019.65 1019.81 1020.01 1020.13 1020.21 1020.29 1020.37 1020.49 1020.57 1020.69 1020.89 1021.01
1019.93 1019.89 1019.85 1019.81 1019.69 1019.61 1019.57 1019.53 1019.49 1019.37 1019.33 1019.25 1019.25 1019.21 1019.17 1019.09 1019.01 1018.93 1018.85 1018.81 1018.73 1018.65 1018.57 1018.53 1018.53 1018.41 1018.33 1018.25 1018.25 1018.21 1018.21 1018.25 1018.21 1018.21 1018.21 1018.25 1018.29 1018.25 1018.25 1018.29 1018.21 1018.21 1018.25 1018.33 1018.37 1018.41 1018.37 1018.29 1018.49 1018.73 1018.97 1019.13 1019.37 1019.53 1019.65 1019.69 1019.77 1019.81 1019.93 1020.09 1020.25 1020.37 1020.49 1020.57 1020.65 1020.77 1020.89 1021.05 1021.17
1020.01 1019.97 1019.93 1019.93 1019.81 1019.77 1019.73 1019.65 1019.61 1019.53 1019.45 1019.37 1019.37 1019.37 1019.37 1019.33 1019.25 1019.17 1019.09 1018.97 1018.97 1018.93 1018.89 1018.81 1018.77 1018.65 1018.61 1018.53 1018.53 1018.49 1018.49 1018.49 1018.49 1018.45 1018.45 1018.53 1018.53 1018.53 1018.49 1018.41 1018.41 1018.49 1018.53 1018.57 1018.61 1018.61 1018.57 1018.53 1018.73 1018.93 1019.13 1019.33 1019.53 1019.69 1019.81 1019.85 1019.85 1019.93 1020.09 1020.25 1020.49 1020.61 1020.73 1020.81 1020.89 1020.97 1021.09 1021.21 1021.37
1020.09 1020.09 1020.01 1019.97 1019.93 1019.89 1019.85 1019.81 1019.73 1019.65 1019.65 1019.61 1019.61 1019.57 1019.53 1019.49 1019.45 1019.37 1019.29 1019.29 1019.25 1019.21 1019.09 1019.09 1019.01 1018.93 1018.85 1018.81 1018.81 1018.77 1018.77 1018.73 1018.73 1018.73 1018.73 1018.77 1018.77 1018.73 1018.69 1018.65 1018.65 1018.73 1018.77 1018.81 1018.81 1018.81 1018.81 1018.85 1019.09 1019.29 1019.45 1019.53 1019.69 1019.85 1019.93 1019.89 1019.93 1020.09 1020.29 1020.53 1020.77 1020.93 1021.01 1021.09 1021.13 1021.21 1021.29 1021.41 1021.53
1020.21 1020.17 1020.09 1020.05 1020.01 1020.01 1019.93 1019.89 1019.85 1019.81 1019.81 1019.81 1019.81 1019.73 1019.65 1019.65 1019.57 1019.53 1019.53 1019.53 1019.45 1019.37 1019.33 1019.29 1019.25 1019.13 1019.09 1019.09 1019.09 1019.09 1019.09 1019.01 1018.97 1019.01 1019.01 1019.01 1018.97 1018.93 1018.93 1018.89 1018.93 1018.97 1018.97 1019.01 1019.05 1019.05 1019.09 1019.17 1019.41 1019.61 1019.73 1019.81 1019.93 1020.01 1020.09 1020.09 1020.13 1020.33 1020.57 1020.81 1021.01 1021.13 1021.25 1021.37 1021.37 1021.41 1021.53 1021.65 1021.77
1020.29 1020.21 1020.21 1020.13 1020.13 1020.09 1020.05 1019.97 1019.93 1019.93 1019.93 1019.93 1019.93 1019.93 1019.85 1019.81 1019.81 1019.81 1019.77 1019.69 1019.61 1019.57 1019.57 1019.53 1019.45 1019.37 1019.33 1019.33 1019.37 1019.37 1019.37 1019.33 1019.29 1019.29 1019.29 1019.33 1019.29 1019.25 1019.25 1019.25 1019.25 1019.25 1019.29 1019.33 1019.33 1019.33 1019.37 1019.53 1019.65 1019.81 1019.97 1020.09 1020.13 1020.21 1020.29 1020.37 1020.49 1020.65 1020.85 1021.05 1021.17 1021.29 1021.41 1021.53 1021.61 1021.65 1021.77 1021.89 1022.01
1020.37 1020.33 1020.29 1020.21 1020.21 1020.17 1020.09 1020.05 1020.01 1020.05 1020.09 1020.09 1020.09 1020.05 1020.05 1020.01 1019.97 1019.97 1019.93 1019.81 1019.77 1019.81 1019.81 1019.77 1019.69 1019.65 1019.61 1019.61 1019.65 1019.65 1019.65 1019.61 1019.57 1019.57 1019.61 1019.61 1019.61 1019.61 1019.57 1019.57 1019.57 1019.57 1019.61 1019.65 1019.65 1019.65 1019.69 1019.81 1019.93 1020.09 1020.21 1020.37 1020.37 1020.49 1020.57 1020.65 1020.77 1020.93 1021.09 1021.25 1021.37 1021.45 1021.57 1021.73 1021.81 1021.89 1021.93 1022.09 1022.13
1020.49 1020.41 1020.37 1020.37 1020.25 1020.21 1020.17 1020.09 1020.09 1020.13 1020.17 1020.21 1020.21 1020.21 1020.21 1020.17 1020.13 1020.09 1020.05 1019.93 1019.93 1019.93 1019.93 1019.93 1019.93 1019.89 1019.85 1019.89 1019.89 1019.89 1019.93 1019.89 1019.85 1019.85 1019.85 1019.85 1019.89 1019.85 1019.81 1019.81 1019.85 1019.89 1019.93 1020.01 1020.05 1020.05 1020.05 1020.13 1020.21 1020.33 1020.45 1020.57 1020.65 1020.77 1020.85 1020.93 1021.01 1021.09 1021.25 1021.37 1021.49 1021.61 1021.77 1021.85 1021.93 1022.05 1022.13 1022.21 1022.25
1020.57 1020.53 1020.49 1020.45 1020.37 1020.29 1020.21 1020.21 1020.21 1020.21 1020.29 1020.33 1020.37 1020.33 1020.33 1020.29 1020.25 1020.21 1020.13 1020.09 1020.09 1020.09 1020.09 1020.09 1020.05 1020.09 1020.09 1020.13 1020.13 1020.09 1020.09 1020.09 1020.09 1020.09 1020.09 1020.09 1020.09 1020.09 1020.09 1020.09 1020.09 1020.17 1020.21 1020.33 1020.37 1020.37 1020.37 1020.45 1020.53 1020.57 1020.69 1020.81 1020.93 1021.01 1021.09 1021.13 1021.21 1021.29 1021.37 1021.53 1021.65 1021.81 1021.93 1022.09 1022.17 1022.21 1022.29 1022.37 1022.49
1020.65 1020.65 1020.57 1020.53 1020.49 1020.37 1020.33 1020.33 1020.33 1020.37 1020.37 1020.37 1020.41 1020.41 1020.37 1020.37 1020.33 1020.29 1020.25 1020.21 1020.21 1020.21 1020.21 1020.17 1020.21 1020.21 1020.25 1020.29 1020.33 1020.29 1020.25 1020.25 1020.25 1020.29 1020.29 1020.33 1020.33 1020.33 1020.37 1020.37 1020.41 1020.45 1020.49 1020.53 1020.57 1020.61 1020.65 1020.69 1020.77 1020.81 1020.93 1021.01 1021.13 1021.25 1021.29 1021.33 1021.41 1021.53 1021.65 1021.77 1021.89 1022.01 1022.17 1022.25 1022.37 1022.41 1022.49 1022.53 1022.65
1020.77 1020.73 1020.69 1020.65 1020.57 1020.49 1020.45 1020.41 1020.45 1020.45 1020.45 1020.49 1020.49 1020.49 1020.41 1020.37 1020.37 1020.37 1020.37 1020.37 1020.33 1020.29 1020.25 1020.25 1020.29 1020.33 1020.37 1020.41 1020.41 1020.41 1020.37 1020.37 1020.41 1020.45 1020.49 1020.49 1020.53 1020.53 1020.57 1020.57 1020.65 1020.65 1020.69 1020.73 1020.81 1020.81 1020.85 1020.93 1020.97 1021.05 1021.13 1021.25 1021.33 1021.41 1021.49 1021.57 1021.65 1021.81 1021.89 1022.01 1022.09 1022.21 1022.37 1022.49 1022.53 1022.61 1022.65 1022.65 1022.77
1020.81 1020.81 1020.81 1020.77 1020.65 1020.61 1020.57 1020.53 1020.53 1020.53 1020.53 1020.53 1020.53 1020.49 1020.45 1020.45 1020.37 1020.37 1020.37 1020.41 1020.37 1020.33 1020.29 1020.33 1020.37 1020.37 1020.45 1020.53 1020.53 1020.49 1020.49 1020.49 1020.53 1020.61 1020.65 1020.65 1020.69 1020.73 1020.77 1020.81 1020.81 1020.89 1020.93 1020.93 1020.97 1021.05 1021.09 1021.17 1021.25 1021.29 1021.37 1021.45 1021.53 1021.65 1021.73 1021.85 1021.93 1022.05 1022.13 1022.21 1022.29 1022.37 1022.49 1022.57 1022.65 1022.73 1022.77 1022.81 1022.93
1020.85 1020.85 1020.85 1020.81 1020.81 1020.73 1020.69 1020.65 1020.65 1020.65 1020.65 1020.61 1020.57 1020.53 1020.53 1020.53 1020.49 1020.45 1020.45 1020.45 1020.41 1020.37 1020.37 1020.41 1020.45 1020.49 1020.53 1020.57 1020.61 1020.61 1020.61 1020.61 1020.69 1020.77 1020.81 1020.81 1020.85 1020.89 1020.93 1020.97 1021.01 1021.09 1021.09 1021.13 1021.21 1021.29 1021.37 1021.41 1021.49 1021.53 1021.57 1021.65 1021.77 1021.85 1021.97 1022.09 1022.17 1022.21 1022.33 1022.41 1022.49 1022.57 1022.65 1022.73 1022.81 1022.89 1022.93 1022.97 1023.09
1020.89 1020.89 1020.89 1020.85 1020.85 1020.81 1020.81 1020.77 1020.77 1020.73 1020.73 1020.69 1020.65 1020.61 1020.57 1020.57 1020.53 1020.53 1020.53 1020.53 1020.53 1020.53 1020.49 1020.53 1020.57 1020.65 1020.65 1020.65 1020.73 1020.73 1020.73 1020.81 1020.85 1020.93 1020.93 1020.93 1021.01 1021.05 1021.09 1021.17 1021.25 1021.25 1021.33 1021.37 1021.41 1021.53 1021.57 1021.65 1021.65 1021.69 1021.81 1021.89 1021.97 1022.09 1022.17 1022.21 1022.33 1022.41 1022.49 1022.57 1022.65 1022.77 1022.85 1022.93 1022.97 1023.05 1023.09 1023.13 1023.25
1020.85 1020.85 1020.89 1020.89 1020.89 1020.89 1020.89 1020.85 1020.85 1020.81 1020.81 1020.81 1020.81 1020.73 1020.69 1020.65 1020.65 1020.65 1020.65 1020.65 1020.65 1020.61 1020.61 1020.61 1020.65 1020.73 1020.77 1020.81 1020.81 1020.85 1020.93 1020.97 1021.01 1021.05 1021.09 1021.13 1021.17 1021.25 1021.29 1021.37 1021.41 1021.49 1021.53 1021.57 1021.65 1021.69 1021.77 1021.81 1021.85 1021.93 1022.01 1022.09 1022.17 1022.25 1022.37 1022.41 1022.53 1022.61 1022.65 1022.73 1022.81 1022.89 1022.97 1023.05 1023.09 1023.21 1023.25 1023.33 1023.41
1020.81 1020.85 1020.89 1020.89 1020.89 1020.93 1020.93 1020.89 1020.89 1020.89 1020.89 1020.85 1020.85 1020.81 1020.81 1020.77 1020.73 1020.69 1020.73 1020.73 1020.73 1020.69 1020.69 1020.73 1020.77 1020.81 1020.85 1020.93 1020.93 1021.01 1021.09 1021.13 1021.17 1021.21 1021.25 1021.29 1021.37 1021.41 1021.49 1021.53 1021.57 1021.65 1021.69 1021.77 1021.81 1021.89 1021.93 1022.01 1022.05 1022.13 1022.21 1022.29 1022.37 1022.45 1022.53 1022.65 1022.69 1022.77 1022.85 1022.93 1023.01 1023.09 1023.09 1023.17 1023.25 1023.29 1023.37 1023.45 1023.49
1020.81 1020.85 1020.85 1020.89 1020.93 1020.93 1020.93 1020.93 1020.93 1020.93 1020.93 1020.93 1020.89 1020.85 1020.85 1020.85 1020.81 1020.81 1020.81 1020.81 1020.81 1020.81 1020.81 1020.89 1020.93 1020.93 1020.97 1021.01 1021.09 1021.09 1021.17 1021.25 1021.29 1021.37 1021.41 1021.49 1021.53 1021.65 1021.73 1021.77 1021.81 1021.85 1021.89 1021.93 1022.05 1022.09 1022.13 1022.21 1022.25 1022.33 1022.41 1022.49 1022.57 1022.65 1022.69 1022.77 1022.85 1022.93 1023.01 1023.09 1023.17 1023.25 1023.29 1023.37 1023.45 1023.49 1023.49 1023.49 1023.49
1020.81 1020.85 1020.85 1020.89 1020.93 1020.93 1020.93 1020.93 1020.93 1020.97 1020.97 1020.93 1020.93 1020.93 1020.93 1020.93 1020.93 1020.93 1020.93 1020.93 1020.93 1020.97 1021.01 1021.05 1021.05 1021.09 1021.13 1021.17 1021.21 1021.25 1021.29 1021.37 1021.49 1021.53 1021.65 1021.73 1021.77 1021.89 1021.97 1022.01 1022.01 1022.05 1022.13 1022.21 1022.25 1022.29 1022.37 1022.37 1022.45 1022.53 1022.57 1022.65 1022.77 1022.81 1022.85 1022.93 1022.97 1023.09 1023.17 1023.25 1023.33 1023.41 1023.53 1023.61 1023.65 1023.65 1023.61 1023.57 1023.53
1020.85 1020.85 1020.89 1020.89 1020.93 1020.93 1020.93 1020.93 1020.97 1020.97 1021.01 1021.01 1021.01 1021.01 1021.01 1021.05 1021.05 1021.09 1021.09 1021.09 1021.09 1021.09 1021.13 1021.17 1021.25 1021.25 1021.29 1021.37 1021.37 1021.37 1021.45 1021.53 1021.65 1021.77 1021.85 1021.93 1021.97 1022.05 1022.13 1022.17 1022.21 1022.25 1022.33 1022.37 1022.41 1022.45 1022.53 1022.57 1022.65 1022.69 1022.77 1022.81 1022.89 1022.93 1023.01 1023.09 1023.17 1023.25 1023.29 1023.37 1023.49 1023.57 1023.69 1023.77 1023.77 1023.77 1023.77 1023.69 1023.65
1020.85 1020.89 1020.93 1020.93 1020.93 1020.97 1020.97 1021.01 1021.01 1021.05 1021.09 1021.09 1021.09 1021.13 1021.13 1021.13 1021.13 1021.13 1021.17 1021.21 1021.25 1021.25 1021.25 1021.29 1021.37 1021.37 1021.41 1021.45 1021.49 1021.53 1021.57 1021.65 1021.73 1021.81 1021.93 1021.97 1022.05 1022.05 1022.09 1022.09 1022.13 1022.21 1022.21 1022.33 1022.37 1022.49 1022.57 1022.65 1022.73 1022.81 1022.89 1022.93 1022.97 1023.09 1023.17 1023.25 1023.29 1023.37 1023.41 1023.53 1023.61 1023.69 1023.77 1023.81 1023.81 1023.85 1023.85 1023.89 1023.85
1020.89 1020.89 1020.93 1020.93 1020.97 1021.01 1021.09 1021.09 1021.09 1021.09 1021.09 1021.13 1021.21 1021.25 1021.25 1021.25 1021.25 1021.29 1021.29 1021.29 1021.37 1021.37 1021.37 1021.41 1021.45 1021.49 1021.49 1021.53 1021.57 1021.61 1021.65 1021.69 1021.77 1021.81 1021.81 1021.85 1021.93 1021.93 1021.93 1022.01 1022.05 1022.09 1022.13 1022.21 1022.33 1022.41 1022.53 1022.65 1022.77 1022.85 1022.93 1023.01 1023.09 1023.21 1023.33 1023.41 1023.49 1023.53 1023.61 1023.65 1023.73 1023.81 1023.85 1023.89 1023.93 1023.97 1023.97 1024.01 1024.01
1020.93 1020.97 1021.01 1021.01 1021.05 1021.09 1021.09 1021.13 1021.17 1021.21 1021.25 1021.25 1021.29 1021.33 1021.37 1021.37 1021.37 1021.37 1021.41 1021.41 1021.45 1021.49 1021.53 1021.53 1021.57 1021.57 1021.57 1021.61 1021.65 1021.69 1021.77 1021.77 1021.81 1021.81 1021.81 1021.81 1021.89 1021.93 1021.93 1022.01 1022.05 1022.09 1022.17 1022.21 1022.33 1022.45 1022.61 1022.69 1022.85 1022.97 1023.09 1023.17 1023.25 1023.37 1023.45 1023.53 1023.65 1023.69 1023.77 1023.81 1023.85 1023.89 1023.93 1024.01 1024.09 1024.09 1024.17 1024.17 1024.13
1020.93 1021.01 1021.05 1021.09 1021.09 1021.13 1021.17 1021.25 1021.25 1021.25 1021.33 1021.37 1021.37 1021.41 1021.45 1021.45 1021.53 1021.53 1021.57 1021.57 1021.65 1021.65 1021.65 1021.65 1021.69 1021.69 1021.73 1021.73 1021.81 1021.81 1021.85 1021.85 1021.85 1021.89 1021.93 1021.93 1021.93 1021.97 1022.01 1022.05 1022.09 1022.13 1022.17 1022.25 1022.41 1022.57 1022.69 1022.81 1022.93 1023.09 1023.21 1023.33 1023.45 1023.53 1023.57 1023.65 1023.77 1023.81 1023.89 1023.93 1023.97 1024.05 1024.09 1024.17 1024.21 1024.25 1024.29 1024.29 1024.25
1021.01 1021.05 1021.09 1021.13 1021.17 1021.21 1021.25 1021.29 1021.33 1021.37 1021.41 1021.49 1021.49 1021.53 1021.61 1021.65 1021.65 1021.69 1021.73 1021.81 1021.81 1021.81 1021.85 1021.89 1021.89 1021.85 1021.89 1021.93 1021.93 1021.97 1021.97 1022.01 1022.01 1022.05 1022.05 1022.09 1022.09 1022.09 1022.09 1022.17 1022.17 1022.21 1022.25 1022.37 1022.53 1022.65 1022.81 1022.93 1023.09 1023.21 1023.29 1023.45 1023.57 1023.65 1023.65 1023.77 1023.81 1023.89 1023.93 1024.05 1024.09 1024.17 1024.25 1024.33 1024.37 1024.45 1024.49 1024.49 1024.45
1021.05 1021.09 1021.09 1021.17 1021.21 1021.25 1021.33 1021.37 1021.37 1021.45 1021.53 1021.57 1021.57 1021.65 1021.73 1021.81 1021.81 1021.85 1021.89 1021.93 1021.97 1022.01 1022.05 1022.05 1022.05 1022.09 1022.09 1022.13 1022.13 1022.13 1022.17 1022.17 1022.17 1022.17 1022.17 1022.21 1022.21 1022.21 1022.25 1022.29 1022.29 1022.37 1022.41 1022.53 1022.61 1022.77 1022.93 1023.05 1023.17 1023.29 1023.41 1023.53 1023.65 1023.73 1023.77 1023.81 1023.89 1023.97 1024.09 1024.17 1024.25 1024.29 1024.37 1024.49 1024.57 1024.65 1024.65 1024.65 1024.65
1021.09 1021.13 1021.17 1021.25 1021.25 1021.33 1021.37 1021.45 1021.53 1021.53 1021.57 1021.65 1021.69 1021.77 1021.85 1021.93 1021.97 1021.97 1022.05 1022.09 1022.17 1022.21 1022.21 1022.21 1022.21 1022.25 1022.29 1022.29 1022.33 1022.33 1022.33 1022.37 1022.33 1022.37 1022.37 1022.37 1022.37 1022.41 1022.45 1022.45 1022.49 1022.53 1022.57 1022.65 1022.77 1022.93 1023.05 1023.21 1023.37 1023.45 1023.53 1023.65 1023.77 1023.85 1023.89 1023.93 1024.05 1024.17 1024.33 1024.41 1024.53 1024.57 1024.65 1024.69 1024.81 1024.85 1024.85 1024.89 1024.89
1021.09 1021.17 1021.25 1021.25 1021.33 1021.37 1021.49 1021.53 1021.57 1021.65 1021.65 1021.73 1021.81 1021.89 1021.97 1022.05 1022.09 1022.13 1022.21 1022.25 1022.33 1022.37 1022.37 1022.37 1022.45 1022.49 1022.49 1022.49 1022.53 1022.53 1022.53 1022.53 1022.53 1022.53 1022.53 1022.53 1022.57 1022.61 1022.65 1022.65 1022.65 1022.69 1022.77 1022.81 1022.93 1023.09 1023.21 1023.33 1023.45 1023.53 1023.65 1023.73 1023.85 1023.97 1024.09 1024.13 1024.29 1024.45 1024.57 1024.69 1024.81 1024.89 1024.93 1024.93 1025.01 1025.01 1025.05 1025.09 1025.09
1021.21 1021.25 1021.29 1021.37 1021.37 1021.45 1021.53 1021.61 1021.65 1021.73 1021.81 1021.81 1021.89 1022.01 1022.09 1022.17 1022.25 1022.33 1022.37 1022.41 1022.45 1022.49 1022.53 1022.57 1022.65 1022.65 1022.69 1022.73 1022.73 1022.73 1022.73 1022.73 1022.73 1022.77 1022.77 1022.77 1022.77 1022.77 1022.77 1022.81 1022.85 1022.89 1022.93 1022.97 1023.09 1023.25 1023.37 1023.45 1023.53 1023.61 1023.69 1023.81 1023.97 1024.17 1024.29 1024.37 1024.53 1024.65 1024.81 1024.89 1024.97 1025.05 1025.09 1025.09 1025.17 1025.21 1025.25 1025.29 1025.29
1021.25 1021.29 1021.33 1021.37 1021.45 1021.53 1021.61 1021.65 1021.73 1021.81 1021.89 1021.93 1022.01 1022.09 1022.21 1022.25 1022.37 1022.45 1022.53 1022.57 1022.61 1022.65 1022.73 1022.81 1022.81 1022.89 1022.93 1022.93 1022.93 1022.93 1022.93 1022.93 1022.93 1022.93 1022.93 1022.97 1022.97 1022.93 1022.93 1022.97 1023.01 1023.01 1023.05 1023.17 1023.25 1023.37 1023.45 1023.53 1023.57 1023.65 1023.81 1023.93 1024.21 1024.37 1024.49 1024.57 1024.69 1024.81 1024.93 1025.05 1025.09 1025.13 1025.21 1025.25 1025.29 1025.33 1025.37 1025.41 1025.41
1021.25 1021.33 1021.37 1021.41 1021.53 1021.57 1021.65 1021.73 1021.81 1021.89 1021.93 1022.01 1022.09 1022.21 1022.29 1022.37 1022.49 1022.61 1022.65 1022.69 1022.77 1022.85 1022.93 1023.01 1023.05 1023.09 1023.09 1023.09 1023.09 1023.13 1023.13 1023.13 1023.17 1023.21 1023.21 1023.25 1023.21 1023.21 1023.25 1023.25 1023.25 1023.21 1023.25 1023.33 1023.37 1023.49 1023.53 1023.57 1023.65 1023.81 1023.97 1024.21 1024.41 1024.53 1024.65 1024.73 1024.89 1025.01 1025.09 1025.13 1025.17 1025.21 1025.25 1025.29 1025.33 1025.41 1025.49 1025.53 1025.53
1021.29 1021.33 1021.37 1021.45 1021.53 1021.65 1021.69 1021.81 1021.85 1021.93 1022.01 1022.09 1022.21 1022.33 1022.37 1022.49 1022.61 1022.65 1022.73 1022.81 1022.89 1023.01 1023.13 1023.21 1023.25 1023.29 1023.29 1023.33 1023.37 1023.37 1023.37 1023.41 1023.45 1023.45 1023.49 1023.53 1023.53 1023.57 1023.61 1023.61 1023.61 1023.45 1023.37 1023.41 1023.49 1023.53 1023.65 1023.69 1023.81 1023.97 1024.21 1024.41 1024.61 1024.73 1024.81 1024.89 1025.01 1025.09 1025.17 1025.21 1025.25 1025.33 1025.37 1025.37 1025.37 1025.45 1025.53 1025.53 1025.57
1021.33 1021.37 1021.37 1021.53 1021.57 1021.65 1021.77 1021.81 1021.93 1022.01 1022.09 1022.21 1022.33 1022.41 1022.49 1022.57 1022.69 1022.81 1022.81 1022.93 1023.09 1023.21 1023.29 1023.37 1023.45 1023.49 1023.53 1023.57 1023.65 1023.73 1023.77 1023.77 1023.77 1023.81 1023.81 1023.81 1023.81 1023.85 1023.93 1023.93 1023.93 1023.69 1023.53 1023.53 1023.57 1023.65 1023.73 1023.81 1023.93 1024.09 1024.33 1024.53 1024.69 1024.81 1024.89 1025.01 1025.09 1025.17 1025.25 1025.33 1025.37 1025.41 1025.41 1025.41 1025.45 1025.45 1025.49 1025.49 1025.45
1021.37 1021.37 1021.41 1021.53 1021.61 1021.69 1021.81 1021.85 1021.93 1022.09 1022.21 1022.33 1022.41 1022.49 1022.53 1022.65 1022.81 1022.89 1022.97 1023.01 1023.21 1023.37 1023.45 1023.57 1023.65 1023.69 1023.77 1023.81 1023.89 1024.01 1024.09 1024.09 1024.09 1024.09 1024.13 1024.13 1024.09 1024.09 1024.09 1024.09 1024.09 1023.93 1023.81 1023.65 1023.65 1023.73 1023.81 1023.93 1024.05 1024.17 1024.37 1024.57 1024.77 1024.89 1024.97 1025.09 1025.21 1025.33 1025.37 1025.45 1025.49 1025.53 1025.49 1025.49 1025.49 1025.53 1025.53 1025.41 1025.21
1021.37 1021.41 1021.49 1021.57 1021.65 1021.77 1021.85 1021.93 1022.01 1022.13 1022.25 1022.37 1022.45 1022.53 1022.65 1022.77 1022.93 1023.01 1023.09 1023.17 1023.29 1023.45 1023.57 1023.69 1023.81 1023.89 1023.93 1023.93 1024.09 1024.21 1024.29 1024.37 1024.29 1024.25 1024.25 1024.33 1024.25 1024.21 1024.21 1024.25 1024.21 1024.21 1024.09 1023.73 1023.69 1023.77 1023.89 1024.01 1024.09 1024.25 1024.41 1024.65 1024.81 1024.93 1025.05 1025.17 1025.33 1025.49 1025.53 1025.61 1025.61 1025.57 1025.57 1025.53 1025.57 1025.53 1025.49 1025.37 1025.13
1021.45 1021.49 1021.53 1021.65 1021.69 1021.81 1021.89 1022.01 1022.09 1022.21 1022.29 1022.37 1022.53 1022.65 1022.73 1022.89 1023.01 1023.13 1023.25 1023.37 1023.45 1023.61 1023.73 1023.89 1024.01 1024.09 1024.09 1024.09 1024.21 1024.33 1024.37 1024.41 1024.45 1024.41 1024.41 1024.41 1024.37 1024.25 1024.25 1024.33 1024.33 1024.33 1024.17 1023.81 1023.73 1023.81 1023.93 1024.05 1024.13 1024.25 1024.53 1024.77 1024.89 1024.97 1025.09 1025.21 1025.37 1025.57 1025.65 1025.73 1025.73 1025.69 1025.65 1025.61 1025.61 1025.57 1025.53 1025.41 1025.33
1021.45 1021.53 1021.61 1021.65 1021.73 1021.81 1021.93 1022.05 1022.17 1022.25 1022.37 1022.49 1022.57 1022.69 1022.81 1022.93 1023.13 1023.29 1023.41 1023.53 1023.65 1023.81 1023.93 1024.09 1024.21 1024.25 1024.25 1024.25 1024.33 1024.37 1024.41 1024.49 1024.53 1024.53 1024.53 1024.53 1024.49 1024.41 1024.37 1024.37 1024.33 1024.29 1024.13 1023.89 1023.77 1023.81 1023.93 1024.05 1024.17 1024.33 1024.57 1024.85 1024.93 1024.97 1025.09 1025.25 1025.41 1025.61 1025.77 1025.81 1025.85 1025.81 1025.81 1025.73 1025.65 1025.57 1025.53 1025.53 1025.45
Thickness
5621 5622 5623 5624 5624 5625 5626 5626 5627 5627 5628 5628 5629 5630 5631 5631 5631 5632 5632 5632 5632 5632 5632 5631 5632 5632 5633 5633 5634 5634 5634 5634 5634 5633 5633 5632 5631 5631 5629 5629 5628 5628 5626 5625 5625 5623 5621 5619 5618 5617 5617 5616 5613 5610 5607 5606 5604 5603 5600 5599 5597 5595 5593 5591 5590 5588 5587 5585 5584
5618 5619 5619 5620 5621 5621 5622 5622 5623 5624 5624 5625 5625 5626 5627 5628 5628 5628 5628 5628 5628 5628 5628 5628 5628 5628 5629 5629 5630 5631 5631 5630 5630 5630 5628 5628 5627 5626 5626 5625 5624 5624 5623 5622 5622 5620 5619 5616 5615 5613 5612 5611 5609 5606 5603 5602 5601 5599 5598 5595 5593 5591 5590 5588 5586 5584 5583 5582 5580
5614 5615 5616 5616 5617 5618 5618 5619 5619 5619 5620 5621 5622 5622 5623 5623 5624 5624 5624 5625 5625 5625 5625 5625 5624 5625 5625 5626 5626 5627 5626 5626 5626 5625 5625 5624 5623 5623 5622 5621 5621 5620 5619 5619 5618 5617 5615 5613 5611 5609 5607 5606 5604 5601 5599 5597 5597 5595 5593 5591 5589 5588 5586 5584 5582 5581 5580 5578 5577
5611 5612 5612 5612 5612 5613 5614 5614 5615 5615 5615 5616 5617 5618 5619 5620 5621 5621 5621 5621 5621 5621 5622 5621 5621 5621 5622 5622 5622 5622 5623 5622 5622 5621 5620 5620 5619 5618 5618 5617 5616 5616 5616 5616 5614 5613 5611 5609 5607 5605 5603 5600 5599 5597 5594 5593 5591 5590 5588 5586 5585 5583 5581 5580 5578 5577 5575 5574 5572
5607 5608 5608 5608 5609 5610 5610 5610 5611 5611 5612 5612 5613 5614 5615 5616 5616 5617 5617 5618 5617 5617 5617 5618 5618 5618 5618 5618 5618 5618 5618 5618 5618 5617 5616 5615 5615 5614 5613 5613 5613 5612 5611 5610 5609 5608 5607 5605 5603 5600 5598 5596 5595 5592 5590 5589 5587 5585 5583 5581 5579 5578 5577 5575 5573 5572 5571 5569 5567
5603 5604 5604 5604 5606 5606 5607 5607 5607 5607 5608 5608 5609 5609 5610 5611 5612 5612 5613 5613 5613 5613 5613 5613 5614 5614 5614 5614 5614 5614 5613 5613 5613 5612 5612 5611 5610 5610 5609 5608 5607 5607 5606 5605 5604 5603 5604 5603 5599 5596 5593 5591 5589 5587 5585 5585 5583 5581 5579 5577 5575 5574 5573 5571 5570 5568 5566 5565 5563
5600 5600 5600 5601 5602 5602 5603 5603 5604 5604 5604 5605 5605 5605 5606 5606 5607 5608 5608 5609 5609 5609 5609 5609 5610 5609 5610 5610 5610 5609 5609 5609 5608 5608 5607 5606 5606 5605 5604 5604 5603 5603 5601 5600 5599 5598 5598 5598 5595 5592 5589 5587 5585 5582 5580 5580 5578 5578 5576 5574 5572 5570 5569 5567 5565 5564 5563 5561 5559
5596 5596 5596 5597 5599 5599 5599 5599 5600 5601 5601 5601 5602 5602 5602 5602 5603 5603 5604 5604 5604 5604 5605 5605 5604 5604 5605 5605 5605 5605 5604 5604 5604 5603 5603 5602 5601 5600 5600 5600 5599 5598 5597 5595 5594 5594 5594 5592 5590 5588 5585 5583 5580 5578 5577 5576 5575 5574 5572 5570 5568 5565 5564 5563 5561 5560 5558 5557 5555
5592 5593 5593 5594 5594 5595 5596 5596 5596 5596 5597 5597 5597 5597 5598 5598 5598 5598 5599 5599 5599 5599 5599 5600 5600 5600 5600 5600 5600 5600 5600 5599 5599 5598 5597 5597 5597 5596 5596 5595 5595 5593 5592 5591 5590 5590 5589 5587 5585 5583 5581 5579 5576 5575 5573 5573 5572 5570 5568 5565 5562 5560 5559 5558 5557 5556 5555 5553 5551
5589 5590 5590 5591 5591 5591 5592 5592 5593 5593 5593 5593 5593 5593 5594 5594 5594 5594 5594 5594 5595 5595 5595 5595 5595 5595 5595 5595 5595 5594 5594 5594 5594 5593 5592 5592 5592 5591 5591 5590 5589 5589 5588 5586 5585 5585 5583 5581 5579 5577 5575 5573 5572 5570 5569 5568 5567 5565 5562 5560 5558 5556 5555 5553 5552 5552 5551 5549 5548
5585 5586 5587 5587 5587 5588 5589 5589 5589 5589 5589 5589 5589 5589 5590 5590 5590 5590 5590 5591 5590 5591 5590 5590 5591 5591 5591 5590 5590 5590 5589 5589 5589 5588 5588 5587 5587 5587 5586 5585 5584 5583 5582 5581 5580 5579 5578 5577 5574 5572 5571 5569 5568 5566 5565 5564 5562 5560 5558 5556 5554 5553 5551 5550 5549 5547 5546 5545 5543
5582 5583 5583 5584 5584 5585 5585 5586 5586 5586 5585 5585 5585 5585 5585 5585 5586 5585 5586 5587 5587 5586 5586 5586 5586 5586 5586 5585 5585 5584 5584 5584 5583 5583 5583 5582 5581 5581 5581 5580 5580 5579 5577 5576 5575 5574 5574 5572 5570 5568 5567 5565 5563 5562 5560 5559 5557 5556 5554 5552 5551 5549 5548 5546 5545 5544 5542 5541 5540
5578 5579 5580 5580 5580 5581 5582 5582 5582 5582 5582 5582 5581 5581 5581 5581 5581 5581 5582 5582 5582 5582 5581 5581 5582 5581 5581 5581 5580 5580 5579 5579 5579 5579 5578 5578 5577 5576 5576 5575 5574 5573 5573 5571 5570 5569 5568 5567 5565 5564 5562 5561 5559 5557 5556 5555 5554 5552 5550 5549 5547 5546 5544 5543 5541 5540 5539 5538 5536
5575 5575 5576 5576 5577 5578 5579 5579 5579 5578 5578 5578 5577 5577 5577 5577 5578 5578 5578 5578 5578 5577 5577 5577 5577 5577 5576 5576 5575 5575 5575 5574 5574 5574 5573 5573 5572 5572 5571 5570 5569 5568 5567 5565 5565 5564 5564 5562 5561 5560 5558 5556 5555 5554 5552 5551 5549 5548 5547 5545 5544 5542 5541 5539 5538 5537 5535 5534 5533
5571 5571 5572 5573 5573 5574 5574 5575 5575 5575 5574 5574 5573 5573 5573 5574 5574 5574 5575 5574 5574 5574 5574 5574 5574 5573 5572 5572 5571 5571 5571 5571 5570 5570 5570 5569 5568 5567 5567 5566 5565 5564 5563 5561 5561 5560 5559 5558 5556 5555 5554 5552 5551 5549 5548 5547 5546 5544 5543 5541 5539 5538 5537 5535 5534 5533 5532 5530 5529
5567 5568 5568 5569 5570 5570 5571 5571 5571 5571 5571 5570 5570 5570 5570 5570 5570 5570 5570 5570 5571 5571 5571 5571 5570 5569 5569 5568 5568 5568 5568 5568 5567 5566 5565 5565 5564 5563 5562 5562 5560 5559 5558 5558 5557 5556 5555 5554 5552 5551 5550 5548 5547 5546 5544 5543 5541 5540 5538 5537 5536 5534 5533 5531 5530 5529 5528 5527 5526
5564 5564 5565 5565 5566 5567 5567 5567 5567 5567 5567 5567 5567 5567 5567 5567 5567 5567 5567 5567 5567 5567 5567 5567 5567 5567 5566 5565 5565 5565 5564 5564 5563 5563 5562 5561 5560 5559 5558 5557 5556 5556 5555 5554 5553 5552 5550 5549 5548 5547 5546 5545 5543 5542 5541 5539 5538 5536 5535 5534 5532 5531 5529 5528 5527 5525 5525 5523 5522
5561 5561 5562 5562 5562 5563 5563 5563 5563 5563 5563 5564 5563 5563 5563 5563 5563 5563 5563 5564 5564 5564 5564 5564 5564 5563 5563 5562 5562 5561 5561 5561 5559 5559 5558 5557 5556 5555 5555 5553 5553 5552 5551 5550 5549 5548 5547 5545 5544 5543 5542 5541 5540 5538 5537 5535 5534 5533 5532 5530 5529 5528 5526 5524 5523 5522 5521 5520 5518
5558 5558 5558 5559 5559 5559 5560 5560 5560 5560 5559 5559 5560 5560 5560 5560 5560 5560 5560 5560 5560 5560 5560 5560 5560 5560 5559 5559 5558 5558 5557 5556 5556 5555 5554 5554 5553 5552 5551 5550 5549 5548 5547 5546 5545 5544 5543 5542 5541 5539 5539 5537 5536 5534 5533 5532 5531 5529 5528 5527 5525 5524 5522 5521 5520 5518 5517 5516 5514
5555 5555 5555 5556 5556 5556 5556 5556 5556 5556 5555 5556 5556 5556 5557 5557 5557 5557 5557 5557 5557 5557 5557 5557 5557 5556 5556 5555 5555 5554 5553 5553 5552 5551 5551 5550 5549 5548 5547 5546 5545 5544 5543 5542 5541 5540 5539 5538 5537 5536 5535 5533 5532 5531 5530 5529 5527 5526 5525 5524 5522 5520 5519 5518 5516 5515 5513 5512 5511
5552 5552 5552 5552 5552 5552 5552 5552 5552 5552 5552 5552 5552 5553 5553 5553 5553 5553 5553 5553 5553 5554 5554 5553 5553 5553 5552 5552 5551 5550 5549 5549 5548 5547 5547 5546 5545 5544 5543 5543 5542 5540 5539 5539 5537 5536 5536 5534 5533 5532 5531 5530 5529 5527 5526 5525 5524 5522 5521 5520 5518 5518 5516 5515 5513 5512 5510 5509 5508
5549 5549 5549 5549 5549 5549 5549 5549 5549 5549 5549 5550 5550 5550 5550 5550 5550 5550 5550 5550 5550 5550 5550 5550 5549 5549 5549 5548 5548 5547 5546 5545 5544 5544 5543 5542 5541 5540 5540 5539 5538 5537 5536 5534 5534 5533 5532 5531 5530 5529 5527 5526 5525 5524 5523 5522 5521 5519 5518 5517 5515 5514 5512 5511 5510 5509 5508 5507 5506
5546 5546 5546 5546 5546 5546 5546 5546 5546 5546 5546 5546 5547 5547 5547 5547 5547 5547 5547 5547 5547 5546 5546 5546 5546 5545 5545 5544 5543 5543 5542 5542 5541 5539 5539 5538 5537 5536 5535 5535 5534 5533 5532 5531 5530 5529 5528 5527 5526 5525 5524 5523 5522 5520 5520 5518 5517 5516 5515 5513 5512 5510 5508 5507 5506 5505 5504 5504 5503
5543 5543 5542 5543 5543 5543 5543 5543 5543 5544 5544 5544 5544 5544 5544 5544 5544 5543 5543 5543 5543 5543 5543 5543 5542 5542 5541 5540 5540 5540 5539 5538 5537 5536 5535 5534 5533 5533 5532 5531 5530 5529 5528 5527 5526 5526 5525 5524 5523 5522 5521 5519 5519 5517 5516 5515 5514 5513 5511 5510 5508 5507 5505 5504 5503 5502 5502 5500 5499
5540 5540 5540 5540 5540 5540 5540 5540 5541 5541 5541 5541 5541 5540 5540 5540 5540 5540 5540 5540 5540 5540 5539 5539 5539 5539 5538 5537 5537 5537 5536 5535 5535 5533 5532 5532 5530 5530 5530 5529 5528 5527 5526 5525 5525 5523 5522 5521 5520 5519 5518 5516 5515 5514 5513 5512 5510 5509 5508 5507 5505 5504 5502 5501 5501 5500 5499 5497 5496
5537 5537 5537 5537 5537 5537 5538 5538 5538 5538 5538 5538 5538 5538 5537 5537 5537 5537 5537 5537 5537 5536 5536 5536 5536 5535 5535 5535 5534 5533 5533 5532 5532 5531 5530 5530 5530 5529 5528 5528 5527 5526 5524 5524 5523 5521 5520 5519 5518 5516 5514 5513 5512 5511 5510 5508 5507 5506 5505 5503 5502 5501 5500 5499 5497 5496 5495 5494 5493
5534 5534 5534 5534 5534 5535 5535 5534 5535 5535 5535 5535 5534 5534 5534 5534 5534 5534 5534 5533 5533 5533 5533 5533 5533 5532 5532 5531 5531 5530 5530 5530 5530 5529 5529 5528 5528 5527 5526 5525 5525 5524 5523 5522 5520 5519 5517 5516 5514 5512 5511 5510 5509 5508 5506 5504 5504 5502 5502 5500 5500 5498 5497 5496 5494 5493 5492 5491 5490
5531 5531 5531 5531 5531 5532 5531 5532 5532 5531 5532 5532 5531 5531 5531 5531 5530 5530 5530 5530 5530 5530 5529 5529 5529 5529 5529 5529 5528 5528 5527 5527 5527 5526 5526 5525 5525 5524 5523 5523 5522 5521 5520 5519 5518 5516 5515 5513 5511 5510 5508 5507 5506 5505 5504 5502 5501 5500 5499 5498 5496 5495 5494 5493 5491 5490 5489 5487 5487
5528 5528 5529 5529 5529 5529 5529 5529 5529 5529 5528 5529 5528 5528 5528 5527 5527 5527 5527 5527 5527 5526 5526 5526 5526 5525 5525 5525 5525 5525 5524 5523 5523 5523 5523 5522 5522 5521 5520 5520 5519 5518 5517 5516 5514 5513 5511 5510 5508 5507 5505 5504 5503 5501 5501 5500 5498 5497 5496 5495 5494 5492 5492 5490 5488 5487 5486 5484 5483
5525 5526 5526 5526 5526 5526 5526 5526 5525 5526 5525 5525 5525 5524 5524 5524 5524 5524 5523 5523 5523 5523 5522 5522 5522 5522 5522 5521 5521 5521 5521 5520 5520 5520 5519 5519 5519 5518 5517 5517 5516 5515 5514 5513 5511 5510 5508 5507 5505 5504 5502 5501 5500 5499 5498 5497 5496 5495 5494 5492 5491 5489 5488 5487 5485 5483 5482 5482 5480
5523 5523 5524 5524 5524 5523 5523 5523 5522 5522 5522 5522 5522 5521 5521 5521 5520 5520 5520 5519 5519 5519 5519 5519 5519 5518 5518 5518 5517 5517 5517 5517 5516 5516 5516 5516 5515 5514 5514 5513 5513 5511 5511 5509 5508 5507 5505 5504 5502 5500 5499 5498 5497 5496 5495 5494 5493 5491 5490 5488 5487 5485 5484 5483 5481 5480 5479 5477 5476
5521 5521 5521 5521 5520 5521 5520 5519 5520 5519 5519 5519 5519 5518 5518 5517 5517 5517 5517 5516 5516 5516 5515 5515 5515 5515 5515 5515 5514 5514 5514 5514 5513 5512 5512 5512 5511 5511 5510 5510 5509 5508 5508 5506 5505 5503 5501 5500 5499 5498 5497 5496 5495 5494 5492 5491 5489 5487 5486 5484 5483 5481 5480 5479 5478 5477 5475 5474 5473
5518 5518 5519 5518 5518 5518 5517 5517 5516 5517 5516 5516 5515 5515 5515 5514 5513 5513 5513 5513 5512 5512 5512 5512 5512 5511 5511 5510 5510 5510 5510 5509 5509 5509 5508 5508 5508 5508 5507 5506 5505 5505 5504 5503 5501 5500 5499 5498 5497 5495 5495 5493 5492 5490 5488 5487 5486 5484 5482 5480 5479 5478 5477 5476 5475 5473 5472 5471 5470
5516 5516 5516 5516 5515 5515 5515 5514 5514 5514 5513 5513 5513 5513 5512 5511 5511 5511 5510 5510 5509 5509 5508 5508 5508 5508 5507 5507 5507 5507 5507 5507 5506 5505 5505 5504 5504 5504 5503 5503 5502 5501 5501 5500 5498 5497 5496 5495 5494 5493 5492 5490 5488 5487 5485 5484 5482 5480 5478 5477 5477 5475 5474 5473 5472 5471 5469 5468 5467
5514 5514 5513 5513 5513 5512 5513 5512 5511 5511 5511 5510 5510 5510 5509 5509 5508 5507 5507 5507 5506 5506 5505 5505 5504 5504 5504 5503 5503 5503 5503 5503 5502 5502 5501 5501 5500 5500 5500 5499 5499 5498 5497 5496 5495 5494 5493 5492 5491 5490 5488 5486 5485 5483 5482 5480 5479 5477 5476 5475 5474 5473 5472 5471 5470 5468 5467 5466 5465
5511 5511 5511 5511 5511 5510 5510 5509 5509 5509 5508 5508 5508 5507 5507 5506 5505 5505 5505 5504 5504 5503 5502 5501 5501 5501 5501 5500 5500 5500 5499 5499 5498 5498 5497 5497 5496 5495 5494 5493 5493 5494 5494 5493 5492 5491 5490 5489 5488 5486 5485 5483 5481 5480 5479 5477 5476 5474 5474 5472 5471 5470 5469 5468 5468 5467 5465 5464 5462
5509 5509 5508 5509 5508 5508 5507 5507 5507 5507 5506 5505 5505 5505 5504 5504 5503 5502 5502 5502 5501 5500 5499 5499 5498 5498 5497 5497 5496 5495 5494 5494 5494 5493 5492 5492 5492 5491 5490 5490 5489 5490 5491 5490 5489 5488 5487 5486 5485 5484 5481 5480 5478 5476 5475 5474 5473 5472 5470 5469 5468 5467 5466 5465 5465 5464 5463 5462 5461
5507 5506 5506 5506 5506 5506 5505 5505 5504 5504 5503 5503 5502 5502 5501 5501 5500 5499 5499 5499 5498 5497 5496 5495 5495 5494 5494 5492 5492 5491 5490 5489 5489 5489 5488 5488 5487 5487 5486 5487 5486 5487 5487 5487 5486 5486 5484 5483 5482 5480 5479 5477 5475 5474 5473 5471 5469 5468 5467 5466 5465 5464 5463 5463 5462 5461 5461 5460 5460
5504 5504 5504 5504 5503 5503 5503 5502 5502 5502 5501 5500 5500 5499 5499 5498 5497 5497 5496 5496 5495 5494 5493 5492 5491 5491 5490 5490 5489 5488 5487 5486 5486 5485 5485 5485 5484 5484 5484 5483 5483 5483 5483 5485 5484 5482 5481 5481 5479 5478 5476 5475 5473 5472 5470 5468 5467 5465 5464 5463 5462 5461 5461 5460 5459 5458 5458 5458 5458
5501 5502 5502 5502 5501 5501 5501 5500 5500 5499 5499 5498 5498 5497 5497 5496 5495 5494 5493 5493 5492 5491 5490 5489 5489 5487 5487 5487 5486 5485 5483 5483 5483 5482 5482 5482 5482 5482 5482 5481 5480 5480 5481 5482 5482 5480 5479 5478 5476 5475 5473 5472 5470 5469 5468 5466 5464 5462 5460 5459 5458 5459 5458 5458 5457 5456 5455 5455 5455
5499 5499 5500 5499 5499 5499 5499 5498 5498 5497 5496 5496 5495 5495 5494 5494 5492 5491 5490 5490 5489 5488 5486 5485 5484 5484 5484 5484 5483 5482 5482 5481 5480 5479 5479 5479 5479 5479 5479 5479 5478 5478 5478 5479 5479 5478 5477 5475 5474 5473 5471 5469 5467 5466 5465 5463 5461 5459 5458 5456 5455 5455 5454 5454 5453 5453 5452 5452 5452